User: anonymous   Login
Location: Unspecified
(0.0000°N, 0.0000°E)
Time: 07:16:43
(UTC+00:00)
Language:

OGO 1 - Orbit

View from above orbital plane
View from above orbital plane
View from above satellite
View from above satellite

Ground track
Ground track

The orbit data is extracted from the following two-line orbital elements,

1   879U 64054A   17291.19458797 -.00000107 +00000-0 +00000-0 0  9992
2   879 084.8380 330.1936 6536920 200.3849 001.0709 00.37769548005392
Epoch (UTC): 18 October 2017 04:40:12
Eccentricity: 0.6536920
inclination: 84.8380°
perigee height: 21618 km
apogee height: 127309 km
right ascension of ascending node: 330.1936°
argument of perigee: 200.3849°
revolutions per day: 0.37769548
mean anomaly at epoch: 1.0709°
orbit number at epoch: 539

The dashed part of the orbit path shows where the satellite is in the earth's shadow,  

DLR